Hourly Data Report for October 18, 2015

All times are specified in Local Standard Time (LST). Add 1 hour to adjust for Daylight Saving Time where and when it is observed.

MONCTON INTL A
NEW BRUNSWICK

46°06'44.000" N
64°40'43.000" W
70.70 m
8103201
71705
YQM

Download Data

Hourly Data (October 2015)
Hourly Data Report for October 18, 2015
Temp Definition
°C
Dew Point Temp Definition
°C
Rel Hum Definition
%
Wind Dir Definition
10's deg

Wind Spd Definition
km/h
Visibility Definition
km
Stn Press Definition
kPa
Hmdx Definition


Wind Chill Definition


Weather Definition


TIME
00:00 Legend Double Dagger 1.5 0.8 95 31 23 12.9 100.30     Drizzle
01:00 Legend Double Dagger 1.5 0.6 94 30 17 24.1 100.34     LegendNANA
02:00 Legend Double Dagger 1.6 0.7 94 30 18 24.1 100.36     Cloudy
03:00 Legend Double Dagger 1.6 -0.3 87 28 21 24.1 100.36     LegendNANA
04:00 Legend Double Dagger 0.8 -0.4 92 28 15 24.1 100.38     LegendNANA
05:00 Legend Double Dagger 0.1 -0.9 93 27 14 24.1 100.42     Mainly Clear
06:00 Legend Double Dagger -0.3 -1.9 89 29 14 24.1 100.47   -5 LegendNANA
07:00 Legend Double Dagger -0.8 -2.1 91 27 12 24.1 100.53   -5 LegendNANA
08:00 Legend Double Dagger 0.6 -1.5 86 28 15 24.1 100.58     Mainly Clear
09:00 Legend Double Dagger 2.2 -1.1 79 29 18 24.1 100.63     LegendNANA
10:00 Legend Double Dagger 3.3 -0.9 74 31 24 24.1 100.64     LegendNANA
11:00 Legend Double Dagger 4.3 -1.3 67 28 21 24.1 100.65     Mostly Cloudy
12:00 Legend Double Dagger 3.5 -2.5 65 27 22 24.1 100.63     LegendNANA
13:00 Legend Double Dagger 3.5 -3.3 61 29 20 24.1 100.62     LegendNANA
14:00 Legend Double Dagger 2.8 -3.6 63 29 26 24.1 100.62     Mainly Clear
15:00 Legend Double Dagger 3.8 -6.5 47 27 22 24.1 100.65     LegendNANA
16:00 Legend Double Dagger 3.0 -7.5 46 28 27 24.1 100.68     LegendNANA
17:00 Legend Double Dagger 1.0 -6.1 59 27 15 24.1 100.74     Mainly Clear
18:00 Legend Double Dagger 0.3 -5.7 64 27 18 24.1 100.80     LegendNANA
19:00 Legend Double Dagger -0.9 -5.3 72 27 15 24.1 100.84   -6 LegendNANA
20:00 Legend Double Dagger -1.2 -4.9 76 26 17 24.1 100.84   -6 Clear
21:00 Legend Double Dagger -1.6 -4.9 78 26 14 24.1 100.82   -6 LegendNANA
22:00 Legend Double Dagger -1.3 -4.5 79 27 14 24.1 100.85   -6 LegendNANA
23:00 Legend Double Dagger -1.6 -4.3 82 28 15 24.1 100.84   -6 Mainly Clear

Notes on Data Quality.

Legend

  • E = Estimated
  • M = Missing
  • NA = Not Available
  • ‡ = Partner data that is not subject to review by the National Climate Archives
Date modified: